| time (UTC) | temp F | wind direction | speed knots | gust knots | rain 1hr in | rain 24hr in | rain mn in | humidity % | barometer mb |
| 20260508023018 | 26 | 0.0 | 0.0 | 0.00 | 0.00 | 0.00 | 96 | 1024.3 | |
| 20260508022033 | 27 | 0.0 | 0.0 | 0.00 | 0.00 | 0.00 | 96 | 1024.2 | |
| 20260508021029 | 26 | 0.0 | 0.0 | 0.00 | 0.00 | 0.00 | 95 | 1024.1 | |
| 20260508020024 | 26 | 0.0 | 0.0 | 0.00 | 0.00 | 0.00 | 95 | 1024.1 | |
| 20260508015020 | 27 | 0.0 | 0.0 | 0.00 | 0.00 | 0.00 | 95 | 1024.0 | |
| 20260508014056 | 28 | 0.0 | 0.0 | 0.00 | 0.00 | 0.00 | 94 | 1023.9 | |
| 20260508013032 | 29 | 210 | 0.0 | 0.9 | 0.00 | 0.00 | 0.00 | 94 | 1023.9 |
| 20260508012026 | 29 | 210 | 0.0 | 0.9 | 0.00 | 0.00 | 0.00 | 94 | 1023.7 |
| 20260508011041 | 28 | 212 | 0.0 | 1.7 | 0.00 | 0.00 | 0.00 | 95 | 1023.7 |
| 20260508010017 | 28 | 210 | 0.0 | 0.9 | 0.00 | 0.00 | 0.00 | 95 | 1023.5 |
| 20260508005033 | 28 | 0.0 | 0.0 | 0.00 | 0.00 | 0.00 | 94 | 1023.5 | |
| 20260508004028 | 27 | 0.0 | 0.0 | 0.00 | 0.00 | 0.00 | 93 | 1023.5 | |
| 20260508003024 | 28 | 0.0 | 0.0 | 0.00 | 0.00 | 0.00 | 92 | 1023.3 | |
| 20260508002019 | 30 | 0.0 | 0.0 | 0.00 | 0.00 | 0.00 | 91 | 1023.2 | |
| 20260508001114 | 30 | 210 | 0.0 | 0.9 | 0.00 | 0.00 | 0.00 | 92 | 1023.3 |
| 20260508000029 | 30 | 202 | 0.0 | 0.9 | 0.00 | 0.00 | 0.00 | 92 | 1023.2 |
| 20260507235025 | 30 | 0.0 | 0.0 | 0.00 | 0.00 | 0.00 | 92 | 1023.1 | |
| 20260507234020 | 30 | 200 | 0.0 | 0.9 | 0.00 | 0.00 | 0.00 | 93 | 1023.2 |
| 20260507233036 | 30 | 0.0 | 0.0 | 0.00 | 0.00 | 0.00 | 93 | 1023.1 | |
| 20260507232030 | 30 | 0.0 | 0.0 | 0.00 | 0.00 | 0.00 | 93 | 1023.0 | |
| 20260507231026 | 30 | 0.0 | 0.0 | 0.00 | 0.00 | 0.00 | 92 | 1022.9 | |
| 20260507230021 | 30 | 0.0 | 0.0 | 0.00 | 0.00 | 0.00 | 92 | 1022.8 | |
| 20260507225017 | 30 | 194 | 0.0 | 0.9 | 0.00 | 0.00 | 0.00 | 92 | 1022.7 |
| 20260507224032 | 31 | 204 | 0.0 | 0.9 | 0.00 | 0.00 | 0.00 | 91 | 1022.6 |
| 20260507223048 | 31 | 187 | 0.0 | 0.9 | 0.00 | 0.00 | 0.00 | 91 | 1022.5 |
| 20260507222023 | 31 | 0.0 | 0.0 | 0.00 | 0.00 | 0.00 | 90 | 1022.5 | |
| 20260507221019 | 32 | 0.0 | 0.0 | 0.00 | 0.00 | 0.00 | 89 | 1022.6 | |
| 20260507220054 | 33 | 0.0 | 0.0 | 0.00 | 0.00 | 0.00 | 86 | 1022.4 | |
| 20260507215030 | 34 | 190 | 0.0 | 0.9 | 0.00 | 0.00 | 0.00 | 86 | 1022.4 |
| 20260507214024 | 34 | 0.0 | 0.0 | 0.00 | 0.00 | 0.00 | 85 | 1022.3 | |
| 20260507213020 | 35 | 0.0 | 0.0 | 0.00 | 0.00 | 0.00 | 84 | 1022.2 | |
| 20260507212035 | 35 | 0.0 | 0.0 | 0.00 | 0.00 | 0.00 | 85 | 1022.0 | |
| 20260507211031 | 35 | 0.0 | 0.0 | 0.00 | 0.00 | 0.00 | 86 | 1022.0 | |
| 20260507210046 | 35 | 0.0 | 0.0 | 0.00 | 0.00 | 0.00 | 87 | 1021.8 | |
| 20260507205021 | 35 | 0.0 | 0.0 | 0.00 | 0.00 | 0.00 | 86 | 1021.6 | |
| 20260507204017 | 35 | 0.0 | 0.0 | 0.00 | 0.00 | 0.00 | 86 | 1021.5 | |
| 20260507203032 | 35 | 0.0 | 0.0 | 0.00 | 0.00 | 0.00 | 84 | 1021.5 | |
| 20260507202027 | 37 | 0.0 | 0.0 | 0.00 | 0.00 | 0.00 | 81 | 1021.4 | |
| 20260507201043 | 37 | 0.0 | 0.0 | 0.00 | 0.00 | 0.00 | 80 | 1021.3 | |
| 20260507200018 | 38 | 182 | 0.0 | 0.9 | 0.00 | 0.00 | 0.00 | 78 | 1021.1 |
| 20260507195054 | 39 | 0.0 | 0.0 | 0.00 | 0.00 | 0.00 | 74 | 1021.0 | |
| 20260507194029 | 41 | 0.0 | 0.0 | 0.00 | 0.00 | 0.00 | 72 | 1021.0 | |
| 20260507193024 | 42 | 175 | 0.0 | 0.9 | 0.00 | 0.00 | 0.00 | 69 | 1020.8 |
| 20260507192021 | 42 | 171 | 0.0 | 0.9 | 0.00 | 0.00 | 0.00 | 69 | 1020.5 |
| 20260507191035 | 43 | 172 | 0.0 | 0.9 | 0.00 | 0.00 | 0.00 | 67 | 1020.5 |
| 20260507190030 | 43 | 0.0 | 0.0 | 0.00 | 0.00 | 0.00 | 65 | 1020.2 | |
| 20260507185027 | 44 | 132 | 0.9 | 2.6 | 0.00 | 0.00 | 0.00 | 63 | 1020.3 |
| 20260507184021 | 44 | 0.0 | 0.0 | 0.00 | 0.00 | 0.00 | 63 | 1020.1 | |
| 20260507183037 | 45 | 147 | 0.9 | 1.7 | 0.00 | 0.00 | 0.00 | 60 | 1020.0 |
| 20260507182034 | 46 | 147 | 0.9 | 2.6 | 0.00 | 0.00 | 0.00 | 58 | 1019.9 |
| 20260507181027 | 46 | 156 | 0.9 | 2.6 | 0.00 | 0.00 | 0.00 | 57 | 1019.7 |
| 20260507180022 | 47 | 143 | 0.9 | 2.6 | 0.00 | 0.00 | 0.00 | 56 | 1019.6 |
| 20260507175018 | 47 | 120 | 1.7 | 6.1 | 0.00 | 0.00 | 0.00 | 56 | 1019.4 |
| 20260507174033 | 48 | 105 | 2.6 | 6.1 | 0.00 | 0.00 | 0.00 | 55 | 1019.4 |
| 20260507173028 | 48 | 75 | 2.6 | 7.0 | 0.00 | 0.00 | 0.00 | 56 | 1019.2 |
| 20260507172024 | 49 | 82 | 3.5 | 7.8 | 0.00 | 0.00 | 0.00 | 56 | 1019.1 |
| 20260507171024 | 50 | 107 | 2.6 | 5.2 | 0.00 | 0.00 | 0.00 | 53 | 1019.0 |
| 20260507170035 | 51 | 113 | 1.7 | 5.2 | 0.00 | 0.00 | 0.00 | 51 | 1018.9 |
| 20260507165030 | 51 | 92 | 2.6 | 6.1 | 0.00 | 0.00 | 0.00 | 50 | 1018.6 |
| 20260507164025 | 51 | 100 | 2.6 | 7.8 | 0.00 | 0.00 | 0.00 | 49 | 1018.5 |
| 20260507163020 | 51 | 96 | 4.3 | 11.3 | 0.00 | 0.00 | 0.00 | 48 | 1018.4 |
| 20260507162016 | 51 | 99 | 4.3 | 11.3 | 0.00 | 0.00 | 0.00 | 48 | 1018.3 |
| 20260507161032 | 52 | 99 | 3.5 | 11.3 | 0.00 | 0.00 | 0.00 | 49 | 1018.3 |
| 20260507160048 | 52 | 89 | 3.5 | 8.7 | 0.00 | 0.00 | 0.00 | 51 | 1018.2 |
| 20260507155023 | 52 | 83 | 5.2 | 13.0 | 0.00 | 0.00 | 0.00 | 51 | 1018.0 |
| 20260507154018 | 51 | 104 | 2.6 | 7.0 | 0.00 | 0.00 | 0.00 | 51 | 1017.8 |
| 20260507153034 | 53 | 95 | 3.5 | 9.6 | 0.00 | 0.00 | 0.00 | 50 | 1017.7 |
| 20260507152030 | 55 | 148 | 1.7 | 3.5 | 0.00 | 0.00 | 0.00 | 45 | 1017.6 |
| 20260507151045 | 56 | 164 | 1.7 | 7.0 | 0.00 | 0.00 | 0.00 | 43 | 1017.8 |
| 20260507150020 | 55 | 184 | 1.7 | 3.5 | 0.00 | 0.00 | 0.00 | 40 | 1017.7 |
| 20260507145035 | 56 | 175 | 0.9 | 1.7 | 0.00 | 0.00 | 0.00 | 40 | 1017.6 |
| 20260507144031 | 55 | 187 | 0.9 | 3.5 | 0.00 | 0.00 | 0.00 | 39 | 1017.6 |
| 20260507143026 | 56 | 174 | 1.7 | 6.1 | 0.00 | 0.00 | 0.00 | 40 | 1017.5 |
| 20260507142022 | 56 | 142 | 0.9 | 3.5 | 0.00 | 0.00 | 0.00 | 42 | 1017.3 |
| 20260507141017 | 55 | 124 | 1.7 | 5.2 | 0.00 | 0.00 | 0.00 | 42 | 1017.4 |
| 20260507140033 | 55 | 173 | 1.7 | 3.5 | 0.00 | 0.00 | 0.00 | 44 | 1017.3 |
| 20260507135109 | 55 | 156 | 1.7 | 3.5 | 0.00 | 0.00 | 0.00 | 44 | 1017.4 |
| 20260507134023 | 55 | 100 | 2.6 | 9.6 | 0.00 | 0.00 | 0.00 | 46 | 1017.4 |
| 20260507133019 | 55 | 67 | 3.5 | 7.8 | 0.00 | 0.00 | 0.00 | 46 | 1017.4 |
| 20260507132033 | 53 | 94 | 3.5 | 8.7 | 0.00 | 0.00 | 0.00 | 48 | 1017.4 |
| 20260507131029 | 52 | 77 | 2.6 | 6.1 | 0.00 | 0.00 | 0.00 | 48 | 1017.4 |
| 20260507130024 | 53 | 73 | 3.5 | 6.1 | 0.00 | 0.00 | 0.00 | 50 | 1017.4 |
| 20260507125019 | 52 | 91 | 2.6 | 5.2 | 0.00 | 0.00 | 0.00 | 50 | 1017.1 |
| 20260507124035 | 52 | 103 | 1.7 | 5.2 | 0.00 | 0.00 | 0.00 | 51 | 1017.0 |
| 20260507123029 | 53 | 88 | 2.6 | 6.1 | 0.00 | 0.00 | 0.00 | 50 | 1017.0 |
| 20260507122021 | 53 | 125 | 1.7 | 3.5 | 0.00 | 0.00 | 0.00 | 52 | 1017.0 |
| 20260507121016 | 51 | 91 | 3.5 | 7.8 | 0.00 | 0.00 | 0.00 | 56 | 1017.0 |
| 20260507120032 | 49 | 105 | 2.6 | 7.0 | 0.00 | 0.00 | 0.00 | 60 | 1017.0 |
| 20260507115047 | 49 | 100 | 2.6 | 6.1 | 0.00 | 0.00 | 0.00 | 60 | 1017.0 |
| 20260507114023 | 49 | 137 | 1.7 | 3.5 | 0.00 | 0.00 | 0.00 | 62 | 1016.8 |
| 20260507113018 | 48 | 167 | 1.7 | 2.6 | 0.00 | 0.00 | 0.00 | 61 | 1016.9 |
| 20260507112034 | 50 | 133 | 2.6 | 6.1 | 0.00 | 0.00 | 0.00 | 60 | 1016.9 |
| 20260507111049 | 51 | 114 | 2.6 | 7.8 | 0.00 | 0.00 | 0.00 | 56 | 1017.0 |
| 20260507110045 | 50 | 112 | 2.6 | 5.2 | 0.00 | 0.00 | 0.00 | 57 | 1017.0 |
| 20260507105020 | 49 | 166 | 0.9 | 2.6 | 0.00 | 0.00 | 0.00 | 60 | 1017.1 |
| 20260507104035 | 50 | 171 | 0.9 | 2.6 | 0.00 | 0.00 | 0.00 | 59 | 1016.9 |
| 20260507103051 | 47 | 189 | 0.9 | 1.7 | 0.00 | 0.00 | 0.00 | 65 | 1016.8 |
| 20260507102026 | 46 | 214 | 0.9 | 1.7 | 0.00 | 0.00 | 0.00 | 66 | 1017.0 |
| 20260507101022 | 48 | 147 | 1.7 | 3.5 | 0.00 | 0.00 | 0.00 | 56 | 1017.0 |
| 20260507100016 | 50 | 203 | 0.9 | 1.7 | 0.00 | 0.00 | 0.00 | 53 | 1016.6 |
| 20260507095032 | 51 | 171 | 0.9 | 1.7 | 0.00 | 0.00 | 0.00 | 50 | 1016.3 |
| 20260507094028 | 54 | 95 | 1.7 | 5.2 | 0.00 | 0.00 | 0.00 | 49 | 1016.0 |
| 20260507093044 | 53 | 189 | 1.7 | 3.5 | 0.00 | 0.00 | 0.00 | 51 | 1016.0 |
| 20260507092038 | 54 | 150 | 1.7 | 3.5 | 0.00 | 0.00 | 0.00 | 51 | 1016.1 |
| 20260507091033 | 52 | 147 | 0.9 | 1.7 | 0.00 | 0.00 | 0.00 | 53 | 1016.1 |
| 20260507090028 | 52 | 124 | 1.7 | 5.2 | 0.00 | 0.00 | 0.00 | 51 | 1015.9 |
| 20260507085105 | 51 | 131 | 1.7 | 2.6 | 0.00 | 0.00 | 0.00 | 51 | 1016.1 |
| 20260507084020 | 52 | 116 | 1.7 | 2.6 | 0.00 | 0.00 | 0.00 | 50 | 1016.1 |
| 20260507083035 | 51 | 243 | 1.7 | 5.2 | 0.00 | 0.00 | 0.00 | 47 | 1016.1 |
| 20260507082031 | 50 | 142 | 0.9 | 1.7 | 0.00 | 0.00 | 0.00 | 50 | 1016.0 |
| 20260507081027 | 49 | 226 | 0.9 | 2.6 | 0.00 | 0.00 | 0.00 | 54 | 1016.0 |
| 20260507080022 | 48 | 145 | 0.9 | 2.6 | 0.00 | 0.00 | 0.00 | 55 | 1015.9 |
| 20260507075018 | 48 | 189 | 0.9 | 1.7 | 0.00 | 0.00 | 0.00 | 56 | 1016.0 |
| 20260507074033 | 48 | 90 | 1.7 | 3.5 | 0.00 | 0.00 | 0.00 | 59 | 1015.9 |
| 20260507073029 | 47 | 108 | 1.7 | 3.5 | 0.00 | 0.00 | 0.00 | 63 | 1015.8 |
| 20260507072025 | 47 | 82 | 0.9 | 2.6 | 0.00 | 0.00 | 0.00 | 59 | 1015.7 |
| 20260507071020 | 46 | 137 | 0.9 | 1.7 | 0.00 | 0.00 | 0.00 | 62 | 1015.7 |
| 20260507070055 | 45 | 145 | 0.9 | 1.7 | 0.00 | 0.00 | 0.00 | 66 | 1015.6 |
| 20260507065031 | 44 | 147 | 0.9 | 1.7 | 0.00 | 0.00 | 0.00 | 69 | 1015.7 |
| 20260507064026 | 43 | 166 | 0.0 | 0.9 | 0.00 | 0.00 | 0.00 | 73 | 1015.4 |
| 20260507063021 | 42 | 130 | 0.9 | 1.7 | 0.00 | 0.00 | 0.00 | 76 | 1015.3 |
| 20260507062017 | 42 | 182 | 0.9 | 1.7 | 0.00 | 0.00 | 0.00 | 78 | 1015.3 |
| 20260507061033 | 41 | 205 | 0.0 | 0.9 | 0.00 | 0.00 | 0.00 | 79 | 1015.1 |
| 20260507060027 | 41 | 210 | 0.0 | 0.9 | 0.00 | 0.00 | 0.00 | 79 | 1015.0 |
| 20260507055022 | 39 | 204 | 0.0 | 0.9 | 0.00 | 0.00 | 0.00 | 81 | 1014.9 |
| 20260507054019 | 39 | 203 | 0.0 | 0.9 | 0.00 | 0.00 | 0.00 | 81 | 1015.0 |
| 20260507053034 | 39 | 212 | 0.0 | 1.7 | 0.00 | 0.00 | 0.00 | 81 | 1014.9 |
| 20260507052029 | 39 | 222 | 0.9 | 1.7 | 0.00 | 0.00 | 0.00 | 82 | 1014.9 |
| 20260507051024 | 39 | 211 | 0.9 | 1.7 | 0.00 | 0.00 | 0.00 | 82 | 1014.8 |
| 20260507050039 | 39 | 172 | 0.9 | 0.9 | 0.00 | 0.00 | 0.00 | 82 | 1014.7 |
| 20260507045035 | 38 | 222 | 0.0 | 0.9 | 0.00 | 0.00 | 0.00 | 85 | 1014.7 |
| 20260507044030 | 38 | 233 | 0.9 | 1.7 | 0.00 | 0.00 | 0.00 | 87 | 1014.7 |
| 20260507043025 | 37 | 244 | 1.7 | 2.6 | 0.00 | 0.00 | 0.00 | 88 | 1014.5 |
| 20260507042020 | 37 | 172 | 0.9 | 1.7 | 0.00 | 0.00 | 0.00 | 89 | 1014.3 |
| 20260507041036 | 36 | 231 | 1.7 | 3.5 | 0.00 | 0.00 | 0.00 | 88 | 1014.7 |
| 20260507040031 | 36 | 233 | 0.9 | 1.7 | 0.00 | 0.00 | 0.00 | 89 | 1014.2 |
| 20260507035027 | 36 | 149 | 1.7 | 2.6 | 0.00 | 0.00 | 0.00 | 88 | 1014.3 |
| 20260507034022 | 36 | 152 | 0.9 | 1.7 | 0.00 | 0.00 | 0.00 | 87 | 1014.4 |
| 20260507033017 | 35 | 133 | 0.9 | 1.7 | 0.00 | 0.00 | 0.00 | 87 | 1014.6 |
| 20260507032032 | 35 | 209 | 0.9 | 1.7 | 0.00 | 0.00 | 0.00 | 88 | 1014.8 |
| 20260507031047 | 35 | 211 | 0.9 | 1.7 | 0.00 | 0.00 | 0.00 | 87 | 1014.6 |
| 20260507030042 | 35 | 214 | 0.9 | 1.7 | 0.00 | 0.00 | 0.00 | 86 | 1014.3 |
| 20260507025017 | 34 | 201 | 0.0 | 0.9 | 0.00 | 0.00 | 0.00 | 89 | 1014.2 |
| 20260507024033 | 33 | 0.0 | 0.0 | 0.00 | 0.00 | 0.00 | 89 | 1014.3 |